Location: Albany
(35.0000°S, 118.0000°E)
Time: 12:15:20
(UTC-04:00)

CZ-4B R/B - Visible Passes

Search period start: 22 September 2014 00:00
Search period end: 02 October 2014 00:00
Orbit: 496 x 673 km, 97.6° (Epoch: 21 September)

Date Brightness Start Highest point End Pass type
(mag) Time Alt. Az. Time Alt. Az. Time Alt. Az.
25 Sep 5.7 15:28:03 10° S 15:28:03 10° S 15:28:05 10° S visible
26 Sep 5.5 15:34:13 11° S 15:34:13 11° S 15:34:25 10° S visible
27 Sep 5.4 15:40:22 13° S 15:40:22 13° S 15:40:44 10° S visible
28 Sep 5.2 15:46:30 14° SSW 15:46:30 14° SSW 15:47:02 10° SSW visible
29 Sep 5.1 15:52:39 15° SSW 15:52:39 15° SSW 15:53:17 10° SSW visible
30 Sep 5.0 15:58:46 15° SSW 15:58:46 15° SSW 15:59:31 10° SSW visible
01 Oct 4.9 16:04:54 16° SSW 16:04:54 16° SSW 16:05:42 10° SSW visible
